STARLINK-33940, 63831

Orbit data source: Space-Track

STARLINK-33940, 63831 is a payload satellite owned by SpaceX/Seattle (US) in LEO that was launched on Sun, 04 May 2025 UTC via an FALCON 9 launch vehicle from the Air Force Eastern Test Range (AFETR). Payload-class satellites include a variety of spacecraft equipped with specific instruments for various scientific and technological missions. These include communications satellites like Starlink; space stations such as the ISS; scientific satellites like the Hubble; Earth observation satellites from companies like Planet Labs, Umbra, and HawkEye 360; GPS; miniature CubeSats for education and research; and military/defense satellites.

Loading next visibility...
Identifier
63831, 2025-092AD
Orbit
LEO
Country
Flag of USUS
Related business
Manufacturer
SpaceX/Seattle
Mission
Operational spacecraft
Bus & Motor
STARLINK V2MO, Unknown motor
Mass
575 kg wet, ~530 kg dry
Launch date (UTC)
2025-05-04 (6 months ago)
Launch vehicle
FALCON 9
Launch site
Air Force Eastern Test Range (AFETR)
Object type
Payload
Rocket body
Debris
Shape & HBR
Unknown shape, 17.7 m
Radar Cross Section
Large (>1 m²)

Expand to show TLE details & history
Last TLE update: 2 days ago

TLE from 2 days ago
0 STARLINK-33940
1 63831U 25092AD  25314.74887424  .00050852  00000-0  18417-2 0  9991
2 63831  43.0020 124.3033 0002353 281.6995  78.3592 15.27633295 30472
Epoch: 2025-11-10T17:58Z
TLE epoch observation values (Epoch: 2025-11-10T17:58:22.734Z)
Latitude
-0.00005°
Longitude
164.5632°
Altitude
482.34 km
Speed
7.626 km/s
True Right ascension
08h 17m 12s
True Declination
0° 00' 00"
Sunlit
Object was in daylight at epoch
Visualization orbit readout
Latitude
Unknown
Longitude
Unknown
Altitude
Unknown
Speed
Unknown
Apparent Right ascension
Unknown
Apparent Declination
Unknown
Sunlit
N/A
Visualization observer readout
Local Sidereal Time
02:30:20
Azimuth
Unknown
Elevation
Unknown
Doppler factor
Unknown
Orbital elements
Apogee altitude
486.449 km
Perigee altitude
483.22 km
Semi-major axis
6,862.971 km
Eccentricity
0.00024
Inclination
43.002°
RAAN
124.3033°
Arg. of periapsis
281.6995°
True anomaly
78.38561°
Mean anomaly
78.3592°
Eccentric anomaly
78.37241°
Mean motion
3.81746 °/min
Orbital period
94.3 mins
BSTAR
0.0018417
Loading maneuver chart data...
Computing Atmospheric mass density...
Loading historical data...
Loading historical data...
Loading historical data...
Loading historical data...
Loading historical data...
Loading historical data...
Loading historical data...

Documentation

Showing up to 5 results
|